Regional Weather Roundup
Issued by NWS

Home | Current Version | Previous Version | Graphics & Text | Print | Product List | Glossary On
Versions: 1 2 3 4 5 6 7 8 9 10 11 12 13 14 15 16 17 18 19 20 21 22 23 24 25 26 27 28 29 30 31 32
000
ASUS45 KGTF 060710
RWRMT
MONTANA HOURLY WEATHER ROUNDUP
NATIONAL WEATHER SERVICE GREAT FALLS MT
100 AM MDT WED MAY 06 2015

NOTE: "FAIR" INDICATES FEW OR NO CLOUDS BELOW 12000 FEET WITH NO
SIGNIFICANT WEATHER AND/OR OBSTRUCTIONS TO VISIBILITY.

MTZ001>007-043-060800-
WEST OF THE DIVIDE

CITY           SKY/WX    TMP DP  RH WIND       PRES   REMARKS
KALISPELL      SUNNY     32  24  72 CALM      29.91S
MISSOULA       CLEAR     39  24  55 NW3       29.94R
BUTTE          CLOUDY    40  34  79 W7        29.90S
DEER LODGE       N/A     45  27  49 NW7       29.93S
EUREKA           N/A     37  27  65 CALM      29.93S
HAMILTON         N/A     46  23  39 NE5       29.92R
LIBBY            N/A     39  25  56 SE3       29.93S
$$

MTZ008-052>055-060800-
SOUTHWEST MONTANA

CITY           SKY/WX    TMP DP  RH WIND       PRES   REMARKS
BOZEMAN        CLOUDY    51  42  71 CALM      29.83S
DILLON         CLOUDY    48  41  76 S5        29.85R
$$

MTZ009-010-012-014-046-048-049-054-060800-
EAST SLOPES AND CENTRAL MONTANA

CITY           SKY/WX    TMP DP  RH WIND       PRES   REMARKS
CUT BANK       PTCLDY    41  21  44 W15       29.83R
GREAT FALLS    CLOUDY    48  46  93 W3        29.81R
MALMSTROM AFB  CLOUDY    53  47  79 W6        29.81R
HELENA         CLOUDY    51  35  54 W9        29.84S
$$

MTZ011-013-016-021-045-047-050-051-060800-
NORTH CENTRAL MONTANA

CITY           SKY/WX    TMP DP  RH WIND       PRES   REMARKS
HAVRE          LGT RAIN  52  50  93 S7        29.74S
LEWISTOWN      LGT RAIN  51  47  86 S5        29.80S
CHINOOK          N/A     55  48  76 N6        29.74R
FORT BENTON      N/A     54  48  82 W5        29.80R
$$

MTZ017>020-022>042-056>058-061-062-060800-
EASTERN PLAINS

CITY           SKY/WX    TMP DP  RH WIND       PRES   REMARKS
BAKER          PTCLDY    54  49  83 SE12      29.75S
BILLINGS       LGT RAIN  56  47  71 NW9       29.75S
GLASGOW        MOCLDY    62  49  62 VRB6      29.66F
JORDAN           N/A     57  47  69 NW8       29.69R
LIVINGSTON     CLOUDY    53  42  66 VRB3      29.81S
MILES CITY     PTCLDY    59  49  69 SE13      29.68R
SIDNEY         CLEAR     59  48  67 SE8       29.72S
WOLF POINT     PTCLDY    59  50  72 E8        29.68S
BIG TIMBER       N/A     52  45  76 W12       29.78S
FORSYTH          N/A     63  45  51 SW5       29.67S
PLENTYWOOD       N/A     57  50  77 SE7       29.72F
POPLAR           N/A     59  52  77 E12G17    29.69S
$$

REGIONAL REPORTS...DAKOTAS

CITY           SKY/WX    TMP DP  RH WIND       PRES   REMARKS
WILLISTON      CLEAR     61  50  67 SE10      29.74F
MINOT          CLEAR     52  42  69 SE8       29.81F
DICKINSON      PTCLDY    54  51  90 SE13      29.76F
BEACH          FAIR      54  54 100 SE14      29.74F
CROSBY         FAIR      52  48  87 SE9       29.77S
WATFORD CITY   FAIR      55  50  82 SE12      29.74F
BISMARCK       CLOUDY    59  32  36 S16       29.86S
GRAND FORKS    PTCLDY    60  52  74 SE12      29.96S
FARGO          CLOUDY    63  53  70 S15G25    29.97S
BUFFALO SD       N/A     58  52  80 SE20G26   29.70F
RAPID CITY     CLOUDY    55  51  86 SE7       29.80F
$$

REGIONAL REPORTS...WYOMING/IDAHO/WASHINGTON

CITY           SKY/WX    TMP DP  RH WIND       PRES   REMARKS
GILLETTE       MOCLDY    53  47  79 SE21G28   29.73F
SHERIDAN       MOCLDY    55  43  63 VRB3      29.70S
BUFFALO WY     PTCLDY    51  46  83 SE9       29.76R
CODY           CLOUDY    52  48  87 N7        29.78S
YELLOWSTONE LA   N/A     34  30  85 NW3       29.91F
IDAHO FALLS    MOCLDY    47  43  86 SW3       29.80S
SALMON         CLOUDY    50  28  43 N13       29.86R
BOISE          CLEAR     52  27  38 W9        29.86R
SPOKANE        MOCLDY    46  25  43 SW8       29.93S
$$

REGIONAL REPORTS...ALBERTA

CITY           SKY/WX    TMP DP  RH WIND       PRES   REMARKS
EDMONTON       RAIN      36  30  80 NW17G23   29.90R WCI  25
CALGARY        CLOUDY    37  34  87 N17G24    29.87S WCI  28
LETHBRIDGE     CLEAR     45  36  70 NW20G25   29.86R
MEDICINE HAT   CLOUDY    55  25  30 S12G17    29.76R
$$

REGIONAL REPORTS...SASKATCHEWAN

CITY           SKY/WX    TMP DP  RH WIND       PRES   REMARKS
SWIFT CURRENT  CLOUDY    55  46  71 SE7       29.66F
REGINA         PTCLDY    61  50  67 SE17      29.71S
SASKATOON      LGT RAIN  55  48  76 E14G25    29.73S
$$



USA.gov is the U.S. government's official web portal to all federal, state and local government web resources and services.